Погода в Сингапуре

Сингапур     1°19′05″N   103°49′46″E
темп.,
°C
ветер,
м/с
пор.,
м/с
влажн.,
%
обл.,
%
осадки,
мм/ч
давл.,
гПа
погр.,
м
5 августа, чт
чт523:00+29ююз347393 0.0 1012549
02:00+29ю3474100 0.8 1011411
05:00+29ююз557244 0.1 1010535
08:00+28ююз5576100 3.1 1012279
11:00+28юз6673100 0.0 1013650
14:00+28ююз5574100 0.0 1011563
17:00+29ю5575100 0.2 1009545
20:00+29ююв777699 2.0 1010499
6 августа, пт
пт623:00+29ююв6775100 0.0 1012639
02:00+29ююв5675100 0.3 1010428
05:00+29ююв677599 0.3 1009578
08:00+29ююв567556 1.4 1011802
11:00+29ю667499 1.0 1012850
14:00+29ю7777100 1.9 1010763
17:00+29ю6677100 0.1 1008604
20:00+29юв7876100 0.4 1009503
7 августа, сб
сб723:00+29юв5676100 1.7 1011331
02:00+29юв567662 1.9 1010406
05:00+29ююв557798 1.6 1009339
08:00+29ююв4576100 5.3 1011234
11:00+29ю557170 1.4 1012613
14:00+29ююз557197 2.8 1010548
17:00+30ю5569100 0.0 1008525
20:00+30ююв457293 0.0 1010433
8 августа, вс
вс823:00+29вюв447667 0.3 1011269
02:00+29вюв447458 1.4 1010236
05:00+29юв347095 1.5 1009328
08:00+29ююв3471100 1.8 1011425
11:00+30ююз3468100 0.7 1012630
14:00+29ююз6669100 1.6 1011690
17:00+28ююз347095 0.0 1009400
20:00+29ю226989 0.0 1010316
9 августа, пн
пн923:00+29юв126831 0.0 1011278
02:00+29юв0169100 0.0 1010259
05:00+28юв127177 0.0 1009318
08:00+28з1273100 1.4 1011320
11:00+28ююз227288 1.9 1012264
14:00+28ююз4472100 4.3 1010544
17:00+29ю557274 0.8 1008626
20:00+28ююв55735 0.8 1010689